Temp
11 11 13 13 12 11 11 11 11 12 13 12 12 11 12 12 12 12 10 10 10 10 10 10 10 11 10 10 10 10 10 10 10 10 10 10 11 11 11 10 10 10 9 9 9 9 9 8 8
12 12 12 12 13 12 11 11 11 12 12 13 12 12 12 12 11 11 10 10 10 11 10 10 10 10 10 10 10 10 10 10 10 10 10 10 10 11 10 10 10 10 10 9 9 9 9 9 9
11 12 12 13 12 13 11 11 11 11 11 12 12 12 12 12 11 10 10 10 10 11 11 11 10 10 10 10 10 10 10 10 11 11 11 11 11 10 10 10 10 10 10 10 9 9 9 9 9
12 12 12 13 13 13 12 11 11 12 12 12 12 12 10 9 9 10 10 11 11 11 11 11 10 10 10 10 10 10 10 11 11 11 11 11 10 10 10 10 10 10 10 10 9 9 9 9 9
12 12 13 14 13 13 13 12 13 12 12 12 12 11 11 10 10 10 10 11 11 11 11 11 10 10 10 10 10 10 10 11 11 11 11 10 10 10 10 10 10 10 10 10 9 9 9 10 9
13 13 14 14 14 13 13 13 13 13 12 12 12 12 11 10 10 10 11 11 11 11 11 10 10 10 10 10 10 9 10 10 11 11 10 10 10 10 10 10 10 10 10 10 9 9 9 10 10
14 14 14 14 14 13 13 13 13 13 12 11 11 13 10 10 10 10 11 11 11 11 11 11 10 10 10 10 10 10 10 10 11 10 10 10 10 10 10 10 10 10 9 9 9 9 9 9 8
13 13 14 14 14 14 13 12 12 12 11 11 11 11 10 10 10 10 11 11 11 11 11 11 10 10 10 10 10 10 10 10 10 10 10 10 10 10 10 10 10 10 9 9 9 9 9 9 8
12 13 14 14 14 14 13 13 11 11 12 10 11 11 11 10 10 10 10 11 11 11 10 10 10 10 10 10 10 10 9 9 10 10 9 9 10 10 10 10 9 9 9 9 9 9 9 9 8
13 14 14 14 14 14 13 13 12 12 10 10 11 9 10 9 9 10 10 11 11 10 10 10 9 9 9 9 10 9 9 9 10 9 9 10 10 10 10 10 9 9 9 9 9 10 9 9 9
13 13 14 14 14 14 13 13 12 12 10 11 11 10 10 9 9 10 10 10 11 11 10 10 9 9 9 9 9 9 9 9 9 9 9 10 10 10 10 10 9 9 9 9 9 9 9 9 9
13 14 15 14 14 14 13 13 12 12 11 11 11 10 10 9 10 10 10 10 11 11 10 10 9 9 9 9 9 8 8 9 9 9 9 9 10 10 10 10 10 9 9 9 9 9 9 9 9
15 15 15 15 14 14 13 13 13 12 11 11 10 10 10 10 10 10 11 10 10 10 11 10 9 9 9 8 8 8 8 9 8 9 9 9 10 10 10 11 10 10 10 9 9 9 9 9 10
14 15 15 15 14 14 14 13 13 12 11 10 10 10 10 10 10 11 11 10 10 11 11 9 10 9 9 8 8 8 8 9 9 8 8 9 10 10 10 11 11 10 10 10 10 10 10 10 9
15 15 15 15 14 12 14 12 12 12 11 11 11 11 11 11 11 11 10 10 10 11 10 10 9 9 8 9 9 8 8 9 9 9 9 9 9 9 9 10 11 11 11 11 11 10 9 10 9
15 15 15 15 14 13 14 12 12 13 12 11 11 11 11 11 10 10 11 10 10 11 11 11 10 10 9 9 9 9 9 9 9 9 9 8 9 9 9 10 11 10 10 10 9 9 10 9 9
14 15 15 15 14 14 14 13 12 12 12 12 12 11 11 10 10 10 10 10 10 11 11 10 10 8 9 9 9 9 9 8 8 9 8 8 8 9 10 11 10 10 10 10 10 10 10 10 10
15 14 15 14 14 14 14 13 13 13 13 13 12 12 12 11 10 10 10 10 10 10 10 10 10 9 9 9 9 9 9 8 8 8 8 8 9 10 10 11 11 10 10 10 10 10 10 11 10
15 14 14 12 13 14 14 13 13 13 12 12 12 12 12 12 12 11 10 10 10 10 10 10 10 9 9 9 9 9 9 9 9 8 9 9 9 10 10 10 11 10 9 10 10 10 11 11 10
15 13 14 11 12 10 13 13 13 13 13 13 13 13 12 12 11 11 11 10 11 10 10 10 10 10 9 8 9 8 9 9 9 8 9 9 9 9 10 10 10 10 10 10 10 10 10 10 10
13 14 14 13 13 12 12 13 14 14 13 13 13 13 13 12 12 12 11 10 11 10 10 10 10 9 8 9 9 9 9 9 9 9 9 9 10 10 10 10 10 10 11 10 10 10 10 10 10
14 13 14 13 12 12 12 13 14 14 14 13 13 13 13 13 12 12 11 11 10 10 10 10 9 10 9 9 9 9 8 8 8 9 10 10 10 10 10 10 10 10 10 10 10 10 10 9 9
15 13 13 13 12 11 12 13 14 14 14 14 13 13 13 13 13 12 11 11 10 10 10 10 10 10 10 9 9 9 9 10 10 10 10 9 10 10 10 10 10 10 10 10 10 10 10 9 10
14 13 11 11 9 9 13 12 15 15 15 14 14 14 14 13 13 12 11 11 11 11 11 10 10 11 10 10 10 10 10 10 10 10 9 9 10 10 10 10 11 11 11 10 10 10 10 10 10
13 12 9 9 9 10 13 13 15 15 15 15 15 15 14 13 13 12 12 11 11 11 11 11 11 11 11 11 10 10 10 10 11 10 10 10 10 10 11 11 11 11 11 10 11 10 10 10 10
12 15 13 10 8 11 13 13 16 16 16 16 16 15 14 14 13 13 12 11 11 11 12 12 12 12 11 11 11 11 11 11 11 11 11 11 10 10 11 11 11 10 10 11 11 10 10 10 10
12 14 15 14 9 10 12 14 16 16 16 15 15 15 15 14 14 13 13 12 12 12 12 12 12 12 12 11 12 11 11 11 10 10 10 10 10 10 10 10 10 11 11 10 10 10 10 10 10
13 16 14 12 9 10 10 11 16 17 16 16 15 15 15 15 15 14 14 14 13 12 13 13 12 12 12 12 12 11 11 11 11 10 10 10 10 10 10 10 11 11 11 11 11 10 10 10 10
14 16 15 13 12 9 8 14 17 17 16 16 16 16 15 15 15 15 15 14 14 13 13 13 13 12 12 12 12 12 11 11 11 11 11 10 11 10 10 10 10 10 10 10 10 10 10 11 11
17 15 15 15 11 11 11 15 17 17 17 17 16 16 15 15 15 15 15 14 14 13 13 13 13 13 12 12 12 11 11 11 11 10 10 10 10 10 10 10 10 10 10 10 10 11 11 11 11
Height
3169 3165 3169 3168 3172 3169 3169 3172 3171 3170 3171 3172 3173 3173 3173 3171 3171 3175 3174 3175 3176 3178 3179 3179 3181 3183 3184 3185 3186 3188 3190 3191 3193 3195 3197 3199 3201 3203 3205 3207 3207 3208 3209 3210 3210 3210 3210 3210 3210
3173 3173 3172 3169 3171 3168 3174 3174 3172 3172 3173 3175 3175 3174 3174 3173 3173 3172 3175 3175 3176 3178 3180 3181 3183 3184 3186 3187 3189 3190 3192 3194 3195 3197 3198 3201 3203 3205 3207 3209 3209 3210 3210 3211 3211 3211 3211 3211 3211
3173 3172 3175 3173 3170 3171 3173 3176 3174 3174 3174 3175 3173 3176 3175 3175 3174 3173 3174 3175 3177 3179 3181 3183 3184 3186 3187 3189 3192 3193 3194 3196 3198 3199 3201 3203 3205 3207 3209 3210 3211 3211 3212 3212 3212 3212 3212 3213 3213
3178 3177 3175 3175 3174 3175 3174 3176 3175 3176 3177 3178 3177 3176 3177 3178 3177 3176 3175 3177 3178 3179 3182 3184 3185 3187 3189 3190 3193 3195 3197 3198 3200 3202 3204 3206 3208 3209 3211 3211 3212 3213 3213 3213 3214 3214 3214 3214 3214
3177 3175 3176 3175 3177 3177 3178 3176 3177 3177 3177 3178 3178 3177 3178 3180 3180 3178 3178 3178 3179 3180 3182 3185 3186 3188 3190 3191 3193 3195 3198 3200 3202 3204 3206 3207 3209 3211 3212 3212 3214 3215 3215 3215 3216 3216 3216 3216 3216
3181 3181 3179 3180 3179 3179 3181 3180 3180 3180 3179 3178 3178 3177 3179 3182 3183 3181 3180 3180 3180 3182 3183 3185 3186 3189 3191 3193 3191 3196 3199 3202 3204 3206 3208 3209 3211 3212 3213 3213 3215 3217 3217 3217 3218 3218 3218 3218 3218
3183 3182 3182 3182 3183 3183 3182 3183 3182 3182 3181 3180 3179 3177 3181 3184 3185 3183 3182 3182 3182 3183 3184 3185 3187 3189 3191 3194 3194 3198 3200 3202 3205 3207 3209 3210 3213 3213 3215 3215 3216 3218 3218 3218 3218 3219 3219 3219 3219
3185 3184 3184 3185 3184 3186 3184 3183 3184 3183 3184 3184 3184 3181 3182 3185 3186 3185 3184 3184 3184 3184 3185 3186 3187 3189 3191 3193 3195 3199 3201 3203 3205 3208 3210 3212 3213 3214 3215 3216 3217 3218 3220 3219 3219 3220 3220 3221 3220
3186 3188 3186 3185 3185 3188 3185 3183 3186 3185 3184 3187 3187 3184 3185 3186 3187 3187 3187 3186 3185 3186 3185 3186 3188 3189 3191 3193 3194 3196 3200 3202 3206 3209 3211 3213 3213 3215 3216 3216 3218 3219 3220 3221 3220 3222 3222 3222 3222
3184 3186 3188 3188 3187 3188 3187 3187 3187 3186 3186 3187 3186 3184 3186 3187 3187 3188 3188 3188 3186 3186 3186 3186 3187 3189 3191 3193 3195 3196 3197 3202 3206 3209 3212 3213 3213 3215 3215 3217 3218 3220 3222 3222 3222 3222 3223 3223 3222
3187 3185 3189 3190 3190 3190 3188 3189 3190 3189 3190 3188 3187 3184 3187 3188 3189 3190 3190 3189 3189 3187 3185 3185 3186 3188 3191 3193 3195 3196 3196 3199 3206 3209 3212 3213 3215 3216 3217 3216 3219 3220 3222 3223 3223 3224 3224 3223 3222
3186 3181 3189 3190 3190 3191 3190 3192 3193 3193 3190 3191 3191 3189 3188 3191 3192 3193 3192 3190 3188 3188 3186 3185 3185 3187 3190 3192 3195 3196 3197 3201 3205 3208 3211 3213 3215 3217 3218 3218 3218 3221 3222 3223 3224 3224 3224 3224 3223
3186 3187 3189 3190 3191 3192 3193 3193 3194 3194 3194 3194 3194 3194 3191 3195 3195 3195 3196 3193 3190 3188 3186 3183 3183 3186 3188 3192 3194 3197 3200 3203 3205 3208 3210 3213 3214 3217 3218 3218 3220 3220 3221 3222 3222 3222 3223 3223 3223
3190 3190 3189 3190 3190 3191 3192 3194 3194 3196 3196 3197 3196 3196 3196 3196 3196 3197 3197 3195 3191 3189 3187 3184 3183 3186 3189 3192 3193 3196 3199 3202 3205 3207 3210 3213 3216 3218 3219 3219 3220 3221 3222 3222 3222 3222 3223 3222 3222
3188 3190 3191 3190 3192 3192 3193 3195 3195 3195 3197 3199 3199 3198 3198 3199 3199 3197 3196 3195 3192 3191 3189 3187 3187 3187 3188 3191 3193 3195 3198 3202 3205 3207 3210 3213 3216 3217 3218 3219 3220 3221 3222 3222 3221 3221 3221 3221 3220
3189 3191 3191 3194 3191 3192 3194 3196 3196 3197 3198 3200 3200 3200 3198 3198 3196 3196 3196 3196 3194 3192 3191 3191 3190 3189 3189 3192 3193 3194 3197 3200 3203 3207 3209 3211 3215 3217 3218 3220 3221 3222 3222 3222 3222 3221 3221 3221 3219
3190 3191 3191 3194 3195 3191 3194 3195 3199 3198 3199 3200 3200 3200 3200 3198 3196 3194 3194 3196 3195 3194 3193 3192 3189 3186 3190 3192 3193 3195 3197 3199 3202 3205 3209 3212 3215 3217 3218 3220 3222 3223 3224 3223 3221 3221 3221 3220 3217
3184 3189 3191 3193 3195 3194 3194 3194 3198 3199 3200 3199 3199 3198 3198 3198 3194 3193 3193 3196 3196 3195 3194 3194 3191 3188 3191 3193 3194 3195 3197 3199 3202 3204 3207 3212 3215 3217 3218 3220 3222 3222 3223 3223 3221 3220 3219 3217 3216
3186 3186 3190 3192 3194 3194 3195 3197 3198 3199 3200 3199 3198 3199 3198 3199 3199 3196 3194 3195 3196 3196 3196 3197 3195 3193 3194 3194 3194 3195 3199 3201 3202 3205 3209 3212 3216 3218 3220 3221 3221 3221 3222 3222 3222 3220 3219 3218 3216
3184 3185 3187 3193 3188 3199 3193 3194 3198 3197 3198 3199 3198 3198 3197 3198 3199 3196 3194 3194 3195 3196 3198 3198 3197 3198 3196 3197 3196 3196 3199 3202 3204 3207 3211 3215 3217 3218 3219 3220 3221 3222 3223 3222 3221 3221 3220 3218 3216
3185 3183 3186 3188 3192 3194 3193 3193 3194 3196 3197 3198 3198 3198 3197 3197 3197 3197 3195 3194 3197 3195 3196 3198 3199 3200 3200 3200 3201 3200 3201 3201 3204 3208 3214 3216 3218 3218 3219 3221 3222 3222 3221 3221 3221 3220 3219 3218 3215
3182 3186 3185 3186 3187 3190 3191 3192 3190 3193 3193 3194 3196 3196 3196 3198 3197 3197 3196 3197 3197 3196 3197 3198 3199 3202 3201 3202 3203 3204 3206 3207 3209 3212 3215 3217 3219 3219 3220 3222 3222 3221 3220 3219 3219 3219 3218 3217 3214
3179 3184 3185 3185 3186 3190 3190 3192 3186 3189 3190 3191 3193 3195 3196 3198 3198 3198 3197 3198 3198 3198 3200 3200 3201 3203 3204 3205 3205 3206 3207 3211 3211 3214 3216 3218 3219 3221 3221 3220 3219 3218 3218 3215 3214 3215 3214 3213 3213
3178 3180 3185 3187 3189 3191 3186 3187 3180 3182 3184 3189 3192 3192 3195 3195 3196 3197 3197 3199 3200 3201 3201 3202 3202 3206 3207 3208 3208 3209 3209 3212 3214 3216 3218 3219 3219 3220 3220 3220 3219 3219 3217 3215 3213 3211 3209 3208 3209
3178 3182 3187 3192 3190 3182 3180 3182 3176 3179 3183 3186 3189 3191 3192 3193 3196 3196 3196 3198 3199 3201 3202 3203 3205 3207 3208 3208 3209 3210 3211 3212 3214 3216 3218 3219 3219 3219 3219 3218 3218 3216 3216 3214 3211 3208 3208 3207 3206
3178 3176 3176 3182 3178 3173 3173 3171 3171 3176 3180 3184 3187 3190 3192 3194 3195 3195 3196 3196 3197 3201 3203 3206 3208 3208 3209 3208 3209 3211 3213 3215 3217 3217 3218 3219 3219 3219 3219 3216 3215 3214 3215 3211 3209 3206 3206 3203 3202
3170 3170 3168 3167 3172 3174 3169 3166 3166 3171 3175 3178 3184 3189 3193 3194 3194 3194 3195 3198 3200 3204 3206 3207 3209 3209 3209 3210 3211 3213 3213 3214 3214 3216 3218 3213 3217 3217 3216 3215 3212 3212 3209 3207 3205 3203 3202 3200 3198
3165 3158 3161 3165 3171 3171 3166 3163 3161 3166 3172 3177 3181 3187 3192 3195 3194 3194 3198 3200 3203 3205 3207 3208 3209 3209 3210 3211 3212 3212 3213 3213 3216 3215 3216 3215 3212 3213 3213 3211 3210 3208 3205 3203 3201 3200 3199 3197 3196
3162 3157 3158 3163 3164 3166 3167 3156 3160 3165 3169 3174 3179 3185 3190 3193 3194 3195 3200 3202 3205 3206 3208 3208 3209 3209 3210 3211 3211 3211 3212 3212 3214 3214 3214 3215 3214 3212 3211 3209 3208 3205 3204 3201 3200 3199 3197 3195 3194
3157 3159 3162 3157 3162 3162 3165 3156 3160 3164 3168 3173 3177 3182 3188 3192 3194 3197 3201 3203 3205 3207 3208 3208 3208 3209 3210 3210 3211 3212 3211 3211 3212 3214 3214 3213 3209 3208 3207 3205 3204 3203 3201 3199 3198 3198 3196 3194 3192
Wind_Speed
18 7 16 19 14 16 16 18 21 17 12 9 16 12 4 5 5 9 15 12 13 13 14 15 15 14 17 19 22 26 26 27 26 25 25 23 22 20 18 14 13 12 11 8 7 7 6 5 4
10 17 17 16 17 21 17 23 21 13 16 10 10 10 12 14 14 20 15 13 10 13 13 14 15 15 17 19 22 25 26 26 26 25 24 22 21 19 17 14 12 10 10 8 9 9 8 6 6
11 11 9 9 12 19 24 24 19 14 10 10 12 14 17 15 13 16 14 13 11 13 15 15 15 16 18 19 21 22 23 25 23 23 22 21 19 17 14 13 11 12 12 12 13 14 13 11 9
14 11 11 20 19 14 23 23 17 12 7 8 17 20 21 14 15 13 13 9 10 14 15 15 16 16 19 20 20 20 21 22 22 21 20 19 17 16 14 13 12 14 16 15 15 17 16 13 11
12 9 8 23 18 15 18 20 8 6 8 8 9 18 18 16 13 14 11 11 10 12 16 16 15 17 18 19 21 20 20 20 21 19 17 17 15 14 13 14 15 15 17 16 15 16 17 16 15
9 11 12 18 15 17 14 10 5 4 10 12 10 18 18 15 12 15 14 12 13 14 16 17 16 18 18 18 18 20 20 19 19 18 16 15 13 13 13 17 16 16 17 16 15 15 16 16 16
12 9 12 19 19 18 16 9 2 6 9 10 9 12 17 11 10 11 11 12 12 15 15 17 17 19 18 15 14 18 20 20 19 17 15 14 11 14 15 16 16 16 17 15 15 15 15 17 16
4 3 16 20 22 22 15 12 5 4 10 12 4 11 18 18 16 13 12 10 9 11 13 15 17 18 17 18 12 16 19 21 20 18 15 13 12 14 15 16 17 16 15 14 13 13 13 13 13
5 5 19 20 21 17 10 12 12 9 7 7 11 12 17 15 15 15 14 9 9 6 11 14 16 19 18 18 13 14 19 22 21 18 15 13 14 15 15 17 16 15 13 11 11 10 10 11 5
8 4 17 18 14 18 9 9 11 11 13 13 16 10 15 9 10 11 13 12 10 8 5 11 15 17 18 18 14 14 13 20 22 18 15 14 15 15 17 18 16 13 10 9 8 7 4 1 3
3 10 15 18 14 13 12 12 6 3 12 7 4 10 12 7 3 7 13 14 4 7 7 8 15 18 18 20 16 13 15 25 23 19 15 15 15 13 15 18 15 13 11 8 6 3 0 1 0
3 15 17 15 12 13 13 11 7 6 10 13 17 14 8 8 0 8 12 11 2 3 5 3 15 17 18 20 18 13 20 25 21 19 16 15 14 13 15 16 16 13 10 8 5 3 2 4 6
23 17 10 12 10 14 14 11 7 13 20 18 18 19 12 10 6 8 14 12 7 5 7 1 14 15 18 22 17 14 17 23 20 18 17 16 16 16 16 15 14 13 12 9 6 5 6 6 7
7 14 10 12 14 18 10 10 2 11 14 14 13 15 15 10 8 11 12 10 5 4 9 9 11 16 17 16 16 17 20 22 21 16 15 19 16 14 14 13 13 11 10 11 7 4 4 3 4
6 23 13 10 13 14 10 15 9 12 13 18 14 10 11 10 7 9 11 8 5 4 7 11 10 11 17 15 17 20 23 23 20 17 13 20 18 13 14 13 10 11 13 8 5 1 2 4 9
5 19 15 16 18 20 8 18 15 8 9 16 11 7 8 6 7 9 6 6 4 5 3 7 4 11 18 17 16 19 23 22 23 19 15 22 19 15 10 13 10 10 6 1 3 5 4 6 9
10 14 13 13 15 18 14 16 14 10 10 15 10 10 9 5 7 4 2 4 9 6 5 5 7 10 18 18 16 18 19 20 22 20 18 20 17 15 15 11 7 4 2 5 4 4 3 3 5
24 8 11 14 10 11 13 15 14 15 11 8 7 9 7 8 6 7 4 1 6 9 5 9 19 18 15 13 14 19 16 18 20 21 22 19 16 13 9 12 8 6 7 5 5 4 1 4 5
18 16 14 6 3 11 11 18 15 16 19 11 14 12 7 5 5 3 7 3 6 8 6 10 15 19 17 13 11 15 22 14 13 19 20 19 13 11 11 8 7 7 8 7 4 2 2 3 4
5 15 16 8 10 18 11 20 22 21 18 18 13 11 9 9 5 4 7 4 4 7 8 8 11 10 12 12 15 16 17 16 18 18 17 16 14 11 11 9 7 6 7 5 4 4 4 8 8
12 12 13 16 15 13 16 19 20 24 22 22 16 10 7 5 7 7 8 5 5 6 3 4 9 10 8 11 15 25 20 17 24 22 14 13 12 11 10 8 5 5 3 3 5 6 6 9 11
22 12 16 24 16 7 7 10 25 24 27 24 21 16 13 4 4 9 9 5 4 7 5 6 7 15 11 14 18 16 13 17 20 9 8 9 9 8 7 6 6 5 4 5 7 7 8 10 10
20 15 13 15 24 8 9 11 28 26 32 29 20 21 12 5 4 8 8 9 7 7 9 10 11 11 11 14 15 14 15 16 11 10 9 8 6 5 6 6 5 6 8 8 9 9 10 9 10
13 24 19 13 8 7 11 6 16 32 33 33 17 18 14 9 5 9 6 7 8 9 11 12 12 13 13 10 9 7 7 9 11 9 10 6 7 4 3 2 6 9 12 12 10 10 12 10 11
15 27 7 1 3 7 8 9 14 26 26 19 19 14 19 13 11 8 9 8 8 8 10 12 12 11 10 10 9 9 8 8 9 7 5 3 2 5 3 4 3 12 18 16 8 10 12 12 13
24 17 10 7 5 5 9 8 16 25 26 20 16 14 10 13 10 9 13 10 9 9 12 14 13 13 12 11 11 11 9 7 6 6 3 2 2 6 5 5 6 11 7 7 12 12 15 16 17
36 15 6 8 2 2 6 13 16 25 33 29 25 19 14 14 14 15 16 15 13 12 14 13 13 12 11 11 10 9 7 6 8 4 3 7 1 6 5 8 10 13 14 13 14 15 17 16 16
32 16 8 7 4 4 5 10 14 31 32 30 30 26 20 22 20 18 16 17 15 11 13 13 12 11 10 10 10 9 7 3 4 3 3 5 6 7 10 12 13 16 15 15 15 15 14 12 11
15 15 9 10 6 6 2 6 17 30 31 31 29 27 24 23 24 21 17 14 16 15 12 12 11 10 8 8 7 6 4 4 8 4 4 6 8 9 13 14 13 12 12 10 10 10 8 9 9
19 16 18 5 3 3 1 10 17 23 31 28 30 28 27 22 25 20 15 12 14 15 12 11 10 9 8 7 8 4 3 1 5 7 7 11 11 12 13 13 12 9 7 7 7 6 6 7 7
Wind_Direction
43 103 97 76 86 94 104 115 104 101 84 136 151 164 128 111 157 124 120 118 120 118 121 123 124 127 128 130 133 136 137 138 139 136 134 133 130 127 124 123 119 117 112 110 118 122 132 145 156
65 72 103 101 93 94 102 118 111 65 80 68 146 157 137 97 112 108 111 118 140 134 130 127 129 132 135 135 138 139 140 141 140 139 137 134 132 128 125 122 116 111 105 103 104 101 101 110 124
92 76 76 106 116 113 125 137 125 103 75 25 117 139 113 101 100 94 96 101 132 147 142 133 135 137 140 137 144 144 144 144 142 142 140 138 136 131 126 121 112 105 103 101 103 98 95 95 103
43 71 77 94 97 116 137 133 135 137 108 72 125 99 94 83 94 74 96 107 135 148 147 144 143 145 147 144 150 148 151 147 147 145 142 139 138 132 130 122 117 113 109 105 103 98 92 92 99
46 32 81 113 120 116 133 155 147 99 58 74 149 121 102 91 89 72 77 86 117 147 151 148 148 152 152 151 154 155 154 153 151 149 146 141 140 134 131 123 119 117 110 105 102 99 96 93 97
42 64 93 102 117 132 134 146 140 65 67 97 133 131 104 93 80 90 70 79 110 139 150 151 153 155 154 153 154 157 159 158 156 153 150 144 140 133 131 125 122 120 115 112 108 102 99 93 89
59 78 111 120 117 123 147 165 84 83 80 88 115 119 112 82 61 67 81 87 106 130 149 161 158 158 157 150 154 163 165 164 164 160 154 141 135 129 130 126 125 122 118 118 116 107 100 92 85
32 0 119 125 127 124 121 146 110 36 97 100 28 113 108 84 72 72 76 93 102 131 149 163 164 165 165 161 158 173 178 173 169 165 155 143 135 135 133 129 127 125 123 122 116 112 102 89 79
265 287 135 137 135 130 159 119 144 121 128 109 80 108 90 81 65 56 45 72 95 121 155 165 170 171 171 170 169 176 199 176 172 166 155 146 140 140 136 132 128 126 128 126 122 116 110 82 85
216 209 156 150 136 129 153 165 163 160 148 136 103 124 94 85 67 40 33 26 77 93 150 171 174 177 176 172 180 174 160 184 167 167 160 156 152 149 142 136 134 130 137 138 136 129 119 65 67
249 223 149 138 139 144 157 147 140 338 163 156 111 124 107 127 80 356 360 5 68 70 88 168 174 177 177 181 187 190 176 166 168 169 165 162 153 156 152 145 142 139 140 148 142 113 105 22 134
192 145 150 149 159 163 164 160 132 54 125 138 112 119 145 166 49 334 347 8 285 35 54 151 180 181 175 177 174 168 159 164 171 167 172 171 164 165 170 157 153 150 152 161 158 155 277 292 263
136 144 146 137 168 179 159 147 91 90 113 115 122 145 183 191 243 313 351 46 42 42 12 138 182 177 175 181 181 187 174 169 171 171 169 164 177 180 184 173 165 165 171 174 166 200 223 255 286
133 156 146 155 175 192 174 151 90 103 116 126 130 159 176 198 262 329 358 30 23 47 34 98 137 163 170 180 185 193 179 176 179 181 172 181 176 183 193 187 178 178 191 189 184 218 266 290 311
136 153 142 159 164 160 159 148 150 126 140 148 170 183 204 244 281 334 356 360 12 43 63 95 113 138 165 167 179 174 176 183 182 187 189 194 191 192 208 203 191 192 203 187 184 190 346 262 302
146 157 155 161 170 168 177 158 167 142 138 179 187 178 215 252 317 325 344 36 38 54 84 74 122 163 152 149 153 171 180 184 185 188 188 189 181 195 197 201 194 216 210 108 2 288 318 284 282
239 187 158 160 169 179 211 187 175 180 177 185 199 203 215 220 279 254 317 28 41 83 99 70 74 168 169 168 157 162 172 186 190 195 190 185 198 204 191 181 196 229 247 213 286 279 305 290 305
223 202 170 164 190 204 216 205 191 207 206 204 185 201 216 214 255 268 157 151 44 106 122 105 83 99 137 165 175 181 169 171 182 192 187 186 188 195 195 203 226 243 288 245 227 231 245 341 321
198 233 258 184 204 200 203 191 209 210 212 193 218 217 243 192 354 179 190 113 93 96 131 132 102 97 92 94 173 179 189 184 179 170 177 195 191 200 205 222 217 231 239 238 244 304 338 308 13
243 226 249 258 249 248 242 212 206 223 224 232 239 233 252 268 266 173 165 127 133 109 145 109 151 115 116 101 102 151 171 186 186 171 156 173 198 207 207 219 226 228 229 224 249 268 280 304 325
180 187 236 257 225 254 256 231 204 222 226 232 244 263 247 310 271 180 144 123 140 110 116 162 129 155 156 133 107 105 95 156 142 145 154 177 189 185 192 206 214 220 217 240 249 257 302 301 309
192 160 163 234 266 297 191 251 206 211 219 224 228 225 234 285 205 166 125 151 123 113 142 138 151 150 150 135 133 139 120 115 143 156 174 172 163 167 174 189 208 230 249 264 270 285 289 293 295
223 162 174 190 231 307 226 258 210 208 216 218 227 227 233 255 216 170 118 113 121 127 136 139 158 139 131 126 128 144 149 145 155 158 157 141 138 164 191 210 235 258 269 262 266 278 292 303 305
185 156 152 184 202 248 241 283 221 208 217 220 229 225 227 241 219 197 148 119 125 140 139 150 160 160 156 137 120 121 144 139 147 145 137 142 150 88 150 323 299 298 291 280 282 288 298 298 301
172 153 111 103 218 226 220 280 223 205 212 222 217 225 219 225 217 172 162 172 121 127 137 138 145 141 143 148 143 136 134 129 139 140 143 114 149 286 244 255 358 323 283 242 283 296 296 296 297
202 172 162 193 215 207 223 237 222 202 204 215 217 204 189 201 200 135 150 143 126 128 141 139 140 135 131 127 124 126 135 141 136 131 197 190 233 316 271 262 303 307 300 267 280 297 292 293 293
178 195 168 179 87 358 232 249 251 202 199 203 214 206 173 164 151 134 133 142 135 150 142 136 132 127 127 128 131 134 135 146 169 180 248 283 298 251 316 313 310 298 302 297 295 293 293 296 297
187 180 150 163 147 241 250 253 222 194 197 205 209 205 184 156 149 141 144 144 144 153 147 140 137 134 137 142 147 150 165 137 29 253 253 311 301 320 322 314 301 302 309 309 310 307 305 304 306
258 181 159 151 156 154 282 248 198 196 203 207 203 202 182 166 157 153 159 155 152 157 159 151 146 143 152 162 168 150 159 154 40 50 306 291 296 315 310 306 306 302 302 305 303 302 307 308 314
241 220 186 165 169 147 222 285 199 202 207 200 197 198 181 182 164 161 164 167 159 156 166 162 161 162 169 194 201 156 181 272 297 295 294 298 322 315 311 312 314 318 319 322 331 322 326 325 317